Location: Newark
(48.1500°N, 2.9667°W)
Time: 23:18:27
(UTC+00:00)

Courier 1B - Pass Details

Date: 24 January 2020
Orbit: 962 x 1209 km, 28.3° (Epoch: 19 February)

Event Time Altitude Azimuth Distance (km) Brightness Sun altitude
Exits shadow 06:08:46 - 230° (SW) 3,448 10.0 -16.7°
Reaches altitude 10° 06:10:35 10° 220° (SW) 3,083 9.8 -16.4°
Maximum altitude 06:14:47 16° 186° (S) 2,704 9.9 -15.7°
Drops below altitude 10° 06:19:03 10° 153° (SSE) 3,133 10.7 -15.0°
Sets 06:23:16 0° 132° (SE) 4,104 11.9 -14.4°
